Location: Hermaringen
(48.5952°N, 10.2585°E)
Time: 21:29:24
(UTC+00:00)

ARIANE 5 R/B - Pass Details

Date: 18 November 2025
Orbit: 746 x 792 km, 98.8° (Epoch: 05 December)

Event Time Altitude Azimuth Distance (km) Brightness Sun altitude
Rises 16:03:59 0° 143° (SE) 3,180 5.6 -5.0°
Reaches altitude 10° 16:06:21 10° 137° (SE) 2,261 4.7 -5.3°
Maximum altitude 16:11:00 43° 67° (ENE) 1,052 2.8 -6.1°
Drops below altitude 10° 16:15:44 10° 357° (N) 2,286 4.8 -6.8°
Sets 16:18:07 0° 351° (N) 3,221 5.6 -7.1°
